Flag for Guernsey Weather past 2 weeks in St. Peter Port, Guernsey

Now
54 °F

Passing clouds.


Feels Like: 53 °F
Forecast: 57 / 65 °F
Wind: 3 mph from East

Location: Guernsey Airport

Current Time: Jul 31, 2015 at 7:17:02 AM

Latest Report: Jul 31, 2015 at 6:20 AM


Visibility: N/A

Pressure: 30.09 "Hg

Humidity: 94%

Dew point: 52 °F

Location of St. Peter PortLocation

Historic Weather in St. Peter Port — Graph

°F

St. Peter Port temperature yesterday

Maximum temperature yesterday: 63 °F (at 3:20 PM)
Minimum temperature yesterday: 54 °F (at 5:50 AM)
Average temperature yesterday: 59 °F

Past Weeks' High & Low Weather Summary

 TemperatureHumidityPressure
High72 °F (Jul 16, 1:50 PM)100% (Jul 16, 6:20 AM)30.15 "Hg (Jul 16, 6:20 AM)
Low54 °F (Jul 18, 5:20 AM)52% (Jul 23, 4:20 PM)29.59 "Hg (Jul 24, 3:50 PM)
Average61 °F81%29.93 "Hg
* Reported Jul 16 6:20 AM — Jul 31 6:20 AM, St. Peter Port, Weather by CustomWeather, © 2015

Note: Actual official high and low records may vary slightly from our data, if they occured in-between our weather recording intervals... More about our weather records

Advertising

St. Peter Port weather history for previous 24 hours

 ConditionsComfort  
Time TempWeatherWind HumidityBarometerVisibility
6:20 AM
Fri, Jul 31
54 °FPassing clouds.3 mph94%30.09 "HgN/A
5:50 AM54 °FPassing clouds.3 mph94%30.09 "HgN/A
5:20 AM54 °FPassing clouds.3 mph94%30.09 "HgN/A
4:50 AM54 °FClear.3 mph88%30.09 "Hg10 mi
4:20 AM54 °FClear.3 mph88%30.09 "Hg10 mi
3:50 AM54 °FClear.3 mph82%30.12 "Hg10 mi
9:50 PM
Thu, Jul 30
54 °FSunny.5 mph88%30.15 "Hg10 mi
9:20 PM55 °FSunny.3 mph82%30.15 "Hg10 mi
8:50 PM55 °FSunny.5 mph82%30.15 "Hg10 mi
8:20 PM57 °FSunny.6 mph72%30.15 "Hg10 mi
7:50 PM59 °FSunny.8 mph68%30.15 "Hg10 mi
7:20 PM61 °FPassing clouds.7 mph63%30.15 "HgN/A
6:50 PM61 °FPassing clouds.8 mph63%30.15 "HgN/A
6:20 PM61 °FPassing clouds.8 mph63%30.15 "HgN/A
5:50 PM61 °FPassing clouds.7 mph63%30.15 "HgN/A
5:20 PM61 °FPassing clouds.9 mph59%30.15 "HgN/A
4:50 PM63 °FPassing clouds.9 mph59%30.15 "HgN/A
4:20 PM63 °FPassing clouds.8 mph59%30.15 "HgN/A
3:50 PM61 °FPassing clouds.8 mph59%30.15 "HgN/A
3:20 PM63 °FPassing clouds.8 mph59%30.15 "HgN/A
2:50 PM61 °FPassing clouds.8 mph59%30.15 "HgN/A
2:20 PM61 °FPassing clouds.8 mph55%30.15 "HgN/A
1:50 PM61 °FPassing clouds.9 mph59%30.15 "HgN/A
1:20 PM61 °FPassing clouds.10 mph59%30.15 "HgN/A
12:50 PM61 °FPassing clouds.10 mph63%30.15 "HgN/A
12:20 PM61 °FPassing clouds.10 mph63%30.15 "HgN/A
11:50 AM61 °FScattered clouds.9 mph68%30.15 "HgN/A
11:20 AM61 °FScattered clouds.10 mph63%30.15 "HgN/A
10:50 AM61 °FPassing clouds.9 mph68%30.12 "HgN/A
10:20 AM59 °FPassing clouds.9 mph72%30.12 "HgN/A
9:50 AM59 °FPassing clouds.9 mph72%30.12 "HgN/A
9:20 AM59 °FPassing clouds.8 mph72%30.12 "HgN/A
8:50 AM59 °FPassing clouds.8 mph72%30.12 "HgN/A
8:20 AM59 °FPassing clouds.8 mph72%30.12 "HgN/A
7:50 AM59 °FPassing clouds.9 mph72%30.09 "HgN/A
7:20 AM57 °FPassing clouds.7 mph77%30.09 "HgN/A
Weather by CustomWeather, © 2015

See weather overviewHow to use our weather pages